Wind_Speed
61 62 67 72 71 74 77 77 76 73 72 69 62 61 66 71 72 75 76 61 56 50 51 47 46 43 41 36 38 35 34 31 26 21 25 24 27 28 33 36 37 35 25
60 61 55 60 57 54 58 72 74 75 72 68 70 68 75 76 73 86 77 61 49 45 45 45 42 40 40 38 37 35 32 30 29 26 25 28 27 29 33 38 38 35 30
50 54 52 54 50 51 56 56 60 68 71 71 72 73 67 85 66 46 35 33 39 42 42 43 41 39 36 35 36 33 32 32 32 27 23 28 30 31 33 36 34 38 38
46 46 50 50 50 52 50 52 58 61 63 66 70 73 75 77 63 50 19 32 36 38 36 35 36 36 35 35 34 33 31 30 28 27 25 28 30 32 33 34 29 32 35
45 47 49 48 46 47 48 49 52 60 62 62 65 57 79 66 57 25 21 29 33 36 35 36 34 34 33 32 33 31 28 28 27 28 27 29 31 30 30 32 28 28 28
52 48 47 47 46 45 48 48 53 56 66 69 66 61 54 24 20 18 30 32 33 36 37 37 38 36 35 34 32 30 29 29 29 31 29 30 32 30 30 30 25 23 22
58 53 48 48 48 47 51 52 49 40 50 67 68 69 50 27 28 31 33 35 32 33 33 34 37 38 39 34 31 30 30 31 31 30 30 30 28 26 25 26 25 21 20
47 61 55 51 50 50 56 51 53 51 48 60 63 64 39 40 38 35 35 36 34 35 32 32 34 37 36 36 32 30 30 31 32 31 29 26 25 23 22 23 24 22 20
38 42 58 53 48 56 57 51 45 40 44 54 60 57 50 48 42 42 38 38 36 33 30 30 28 30 35 36 35 33 32 33 33 29 24 22 20 20 20 19 21 23 16
28 31 48 61 58 51 56 55 50 50 45 42 52 57 54 53 50 45 42 41 37 33 31 26 27 30 32 33 32 33 34 34 30 23 22 19 17 17 18 19 18 24 20
34 29 31 60 66 63 55 53 54 56 53 49 50 57 62 60 57 50 44 42 43 34 33 29 29 30 29 31 31 30 28 26 24 22 19 16 15 14 17 19 19 22 22
30 30 31 36 69 69 63 54 55 54 47 52 52 47 58 62 59 51 50 46 38 34 35 31 30 29 30 29 26 25 24 24 21 17 16 16 16 15 16 17 19 21 22
28 29 28 33 45 68 66 59 59 58 58 43 60 37 42 55 58 58 54 45 42 39 38 34 30 32 32 29 27 24 24 22 20 19 18 15 16 15 17 19 19 19 21
24 25 22 30 32 54 67 65 61 62 55 60 52 40 42 41 43 46 45 47 46 38 37 35 33 33 34 33 30 26 25 24 24 23 20 15 10 14 20 22 20 17 23
18 14 16 24 33 36 64 68 67 61 52 47 45 33 37 42 45 53 45 45 43 37 37 35 37 33 32 35 34 32 31 28 28 25 19 15 15 17 20 22 22 24 18
20 11 3 10 22 25 53 63 64 62 58 52 47 47 44 48 47 41 50 45 43 42 43 40 37 38 31 31 37 37 35 32 30 27 22 17 18 23 21 23 25 27 25
28 22 3 7 12 14 37 55 58 56 53 51 51 52 50 50 47 59 50 43 43 47 45 41 40 39 35 29 32 38 38 37 33 28 27 23 22 22 24 26 24 31 29
22 21 19 6 12 11 20 33 47 54 48 46 47 50 50 48 44 56 51 43 43 43 41 42 40 38 38 34 31 35 39 38 33 29 29 25 25 23 25 25 23 31 16
31 22 14 9 6 13 17 23 35 45 52 52 49 50 52 50 46 44 48 43 41 42 41 36 34 36 35 35 30 33 37 36 34 33 32 31 28 26 25 24 24 23 15
29 22 19 11 2 6 12 17 23 30 41 51 56 56 56 57 53 50 48 48 45 39 40 37 34 37 39 38 34 36 34 34 33 31 33 33 31 30 29 25 26 32 23
34 27 19 16 12 3 9 17 19 22 28 38 40 52 65 60 57 53 50 48 45 40 38 36 36 34 35 38 38 37 36 36 38 32 33 31 33 31 31 30 30 35 21
36 34 26 17 18 15 10 3 12 15 13 18 32 33 45 62 53 49 48 47 43 42 39 37 38 34 37 36 37 37 39 40 35 35 30 30 32 33 33 28 34 26 22
35 37 34 22 20 19 17 15 12 11 10 10 11 30 38 42 48 43 44 45 42 41 39 38 39 39 38 39 38 41 38 34 35 36 33 32 33 35 28 26 35 26 23
40 35 35 28 22 21 19 20 19 17 14 13 7 9 17 31 44 38 36 37 38 40 40 39 40 40 41 39 37 37 34 37 42 41 35 34 28 30 25 18 16 16 19
41 33 31 30 21 18 19 17 16 16 15 14 12 10 17 23 28 28 29 31 31 33 40 41 39 37 38 38 38 40 46 47 43 37 37 36 35 29 23 18 17 17 19
30 30 34 30 25 21 19 16 13 9 8 10 9 7 10 11 17 22 24 26 28 29 33 37 38 40 40 37 36 38 41 40 40 39 38 30 29 21 27 24 28 23 22
Wind_Direction
264 258 247 245 241 239 241 242 243 243 244 240 249 246 247 252 255 252 254 248 243 246 246 248 254 258 261 264 266 272 276 279 281 272 276 270 270 276 279 284 285 281 281
276 258 253 251 246 244 241 238 240 241 241 244 244 245 239 247 249 249 243 223 237 244 247 250 252 253 254 258 262 265 270 275 278 279 272 273 273 277 281 282 284 284 285
280 256 247 249 246 238 239 240 239 236 238 238 242 243 238 253 241 243 204 223 235 243 244 248 251 250 252 256 260 261 266 272 277 277 268 270 274 274 277 282 290 282 276
275 260 246 246 248 238 238 241 236 232 232 233 236 240 241 245 245 236 231 241 249 249 246 250 253 253 254 256 259 262 264 269 270 271 268 268 270 274 283 290 297 290 276
261 253 248 244 247 243 238 240 238 233 228 230 235 244 235 241 226 222 229 248 255 253 250 251 259 262 259 255 257 259 261 263 263 264 264 265 269 275 287 296 297 291 284
253 251 245 241 242 240 237 240 237 231 227 227 232 239 240 212 246 234 244 247 260 266 268 268 260 256 255 251 251 255 256 256 257 258 263 264 268 274 284 297 301 296 288
247 242 241 240 235 235 233 235 239 218 219 223 235 243 251 244 242 233 240 246 251 261 265 263 259 254 251 250 247 247 249 250 252 255 257 263 267 276 287 297 303 286 288
267 240 237 237 231 229 234 236 242 258 222 227 235 243 245 243 242 240 239 240 247 257 258 256 253 248 243 243 241 241 245 248 251 254 256 260 263 275 288 304 308 294 295
271 253 229 230 229 222 233 233 239 242 234 224 229 236 236 236 241 240 242 246 246 250 254 250 249 247 241 236 235 238 242 245 248 251 248 253 264 274 286 300 310 301 283
296 264 237 223 225 227 225 229 226 236 208 218 226 231 233 233 235 238 236 242 243 250 251 244 246 242 232 227 228 232 238 241 244 240 241 254 265 275 282 289 295 297 286
292 280 256 221 223 223 225 227 225 227 231 236 242 234 231 233 234 233 238 250 237 236 243 245 243 238 230 227 225 229 231 233 231 233 243 252 258 266 280 286 284 287 298
286 282 252 236 220 218 217 223 230 229 229 238 233 238 232 233 233 234 239 240 233 232 239 244 238 233 228 225 222 220 221 223 230 238 245 247 255 262 271 282 283 286 304
296 285 252 234 225 219 214 211 221 224 222 223 221 226 232 233 237 231 238 233 227 224 234 236 241 233 229 225 220 216 220 225 228 228 237 244 250 257 267 277 285 288 296
297 296 265 235 227 220 213 205 214 220 224 230 210 225 238 235 235 228 231 226 225 229 230 233 235 236 230 226 223 219 219 222 227 233 237 237 268 263 264 270 283 289 307
325 282 278 231 225 222 212 209 207 220 222 218 227 225 225 228 220 235 219 220 223 238 235 232 230 232 232 231 225 222 222 228 231 232 239 245 261 270 271 274 281 300 299
356 338 250 213 206 207 206 208 212 213 219 218 224 225 228 233 239 241 213 219 227 228 228 227 227 228 234 235 232 227 225 227 233 237 244 252 266 270 286 282 288 291 290
26 29 83 159 201 206 205 208 209 216 216 220 223 226 230 230 242 227 225 216 226 227 224 227 228 228 229 233 235 231 227 229 230 231 239 254 264 274 278 281 302 305 299
18 33 44 129 162 193 211 209 204 212 212 215 216 218 220 224 233 224 226 219 221 224 230 235 230 226 232 232 240 235 231 231 227 234 240 251 269 275 283 284 290 289 258
21 25 27 59 130 180 179 184 198 207 213 215 221 221 220 223 222 217 213 218 215 217 226 226 224 228 231 234 239 234 232 234 232 235 248 258 265 275 284 285 276 283 236
22 11 22 30 5 202 200 210 214 213 216 219 223 226 223 221 220 216 214 218 219 222 222 223 224 228 238 234 234 234 229 234 238 242 250 256 259 270 275 279 277 287 269
19 12 9 20 42 66 213 225 220 214 222 222 221 221 223 221 219 218 217 217 220 224 227 223 225 227 236 227 228 231 233 241 247 248 248 251 256 264 270 278 277 284 269
21 23 17 37 43 47 65 170 209 215 229 218 220 218 219 216 217 221 221 220 222 223 223 225 228 227 231 228 229 234 237 238 242 246 246 247 252 262 271 263 265 271 204
31 25 31 44 49 55 61 81 102 128 137 161 177 209 213 208 211 216 219 221 222 224 228 229 228 227 232 239 238 239 239 235 237 240 245 251 255 261 249 243 262 232 209
32 40 36 45 53 47 50 62 71 74 82 87 108 162 195 203 203 212 219 225 230 231 233 235 237 235 235 236 233 233 235 229 238 241 236 243 244 236 230 233 199 204 221
27 15 44 46 50 55 50 46 45 57 73 86 103 136 179 185 199 214 223 227 229 230 225 224 228 230 226 229 236 236 232 232 233 224 234 225 221 220 205 197 213 203 200
16 29 25 42 41 48 52 54 47 48 68 81 83 103 138 171 198 211 217 221 224 222 220 220 221 222 224 225 226 227 227 224 222 216 213 205 207 209 210 230 213 217 210
Height
5615 5617 5620 5626 5630 5637 5644 5653 5662 5670 5677 5692 5699 5703 5703 5701 5702 5704 5706 5715 5722 5727 5733 5735 5743 5748 5750 5751 5755 5757 5759 5762 5764 5768 5768 5768 5767 5767 5764 5761 5758 5758 5757
5593 5594 5600 5602 5610 5617 5623 5633 5644 5651 5664 5671 5674 5681 5686 5687 5682 5661 5679 5686 5705 5716 5718 5725 5732 5735 5739 5741 5746 5748 5751 5752 5756 5760 5760 5759 5760 5760 5757 5754 5751 5751 5751
5574 5574 5580 5584 5593 5600 5609 5618 5627 5633 5646 5649 5659 5661 5665 5660 5668 5651 5647 5673 5691 5706 5708 5713 5718 5724 5729 5732 5735 5739 5741 5744 5747 5750 5753 5753 5752 5752 5750 5747 5745 5742 5742
5559 5562 5567 5573 5579 5586 5595 5601 5610 5619 5628 5633 5636 5636 5640 5647 5658 5660 5656 5674 5686 5696 5697 5703 5707 5712 5716 5723 5727 5730 5732 5737 5739 5741 5744 5745 5745 5744 5742 5739 5738 5733 5733
5543 5549 5554 5561 5566 5575 5583 5587 5593 5601 5610 5617 5623 5630 5626 5634 5645 5649 5659 5671 5679 5683 5685 5692 5697 5700 5707 5714 5718 5721 5724 5728 5731 5733 5736 5737 5737 5737 5735 5731 5730 5727 5726
5528 5533 5541 5548 5554 5562 5567 5573 5576 5586 5594 5602 5605 5615 5620 5631 5629 5637 5653 5660 5668 5672 5678 5681 5684 5692 5698 5704 5709 5713 5717 5721 5723 5726 5728 5729 5729 5729 5727 5725 5723 5721 5719
5508 5513 5522 5532 5542 5549 5551 5557 5560 5536 5566 5590 5596 5602 5604 5614 5621 5637 5644 5653 5660 5666 5671 5671 5674 5682 5687 5694 5699 5705 5709 5713 5716 5719 5720 5722 5723 5721 5720 5719 5717 5714 5713
5489 5495 5505 5514 5525 5536 5534 5543 5549 5547 5552 5577 5584 5593 5601 5608 5620 5630 5639 5646 5652 5657 5659 5663 5665 5672 5677 5683 5691 5696 5701 5706 5709 5711 5713 5714 5715 5715 5715 5714 5712 5709 5707
5475 5475 5487 5498 5509 5521 5523 5534 5543 5547 5552 5564 5572 5580 5592 5601 5609 5620 5629 5635 5643 5647 5652 5655 5657 5662 5668 5675 5682 5688 5692 5697 5701 5705 5707 5708 5708 5708 5709 5709 5707 5706 5704
5462 5463 5467 5481 5492 5505 5513 5523 5534 5539 5539 5550 5564 5575 5585 5593 5603 5613 5621 5628 5634 5638 5644 5645 5650 5655 5661 5668 5673 5679 5684 5689 5695 5697 5700 5701 5702 5702 5703 5703 5702 5700 5700
5453 5452 5454 5461 5474 5486 5503 5513 5523 5531 5537 5544 5553 5563 5572 5584 5592 5602 5612 5620 5627 5630 5635 5640 5645 5650 5655 5660 5666 5671 5677 5682 5687 5690 5693 5695 5696 5697 5697 5697 5696 5696 5695
5440 5440 5442 5446 5455 5469 5486 5500 5508 5520 5529 5535 5546 5554 5562 5574 5586 5596 5605 5612 5617 5622 5629 5634 5639 5645 5649 5653 5659 5665 5671 5676 5680 5683 5686 5688 5690 5691 5691 5691 5691 5690 5690
5430 5428 5429 5435 5442 5453 5471 5488 5498 5507 5514 5521 5532 5547 5554 5565 5574 5585 5595 5603 5609 5616 5621 5627 5633 5639 5643 5648 5653 5659 5664 5669 5673 5677 5680 5683 5684 5685 5685 5685 5685 5686 5685
5421 5419 5418 5423 5432 5440 5457 5474 5489 5496 5508 5520 5524 5538 5548 5557 5565 5574 5585 5595 5602 5608 5616 5621 5627 5632 5638 5642 5647 5652 5657 5661 5666 5671 5674 5677 5678 5679 5679 5680 5681 5680 5679
5413 5411 5410 5414 5421 5428 5444 5462 5475 5486 5499 5511 5523 5531 5543 5549 5555 5559 5575 5585 5594 5603 5608 5614 5619 5625 5630 5636 5640 5645 5650 5655 5660 5665 5668 5671 5672 5673 5673 5674 5675 5675 5673
5413 5407 5407 5410 5416 5424 5435 5452 5467 5480 5494 5502 5513 5525 5536 5537 5546 5547 5560 5575 5584 5591 5598 5605 5611 5617 5624 5629 5634 5638 5643 5648 5653 5657 5661 5664 5666 5666 5668 5669 5668 5667 5665
5422 5413 5411 5413 5419 5425 5434 5445 5459 5471 5483 5495 5505 5516 5523 5530 5535 5543 5558 5565 5572 5580 5589 5596 5603 5609 5616 5622 5627 5631 5636 5640 5645 5650 5654 5657 5659 5659 5661 5663 5662 5660 5658
5432 5426 5421 5419 5423 5427 5432 5439 5452 5464 5475 5484 5494 5505 5514 5521 5528 5536 5547 5556 5564 5572 5580 5587 5592 5600 5607 5614 5620 5625 5629 5632 5639 5644 5647 5650 5652 5653 5654 5656 5657 5657 5655
5440 5435 5432 5430 5429 5431 5435 5441 5449 5458 5467 5477 5484 5494 5503 5513 5522 5529 5539 5548 5557 5565 5570 5575 5583 5590 5597 5604 5611 5616 5621 5626 5631 5636 5639 5642 5645 5646 5647 5649 5650 5650 5652
5450 5443 5437 5434 5434 5436 5438 5442 5448 5455 5461 5468 5476 5483 5492 5502 5511 5521 5529 5539 5547 5555 5561 5567 5575 5582 5588 5596 5602 5608 5612 5618 5623 5628 5630 5633 5637 5638 5640 5642 5642 5643 5645
5456 5448 5441 5437 5436 5435 5436 5439 5443 5448 5452 5457 5463 5471 5479 5489 5500 5511 5520 5530 5538 5546 5552 5558 5565 5572 5579 5586 5593 5599 5604 5609 5614 5619 5621 5625 5627 5630 5632 5635 5637 5640 5638
5463 5454 5447 5443 5441 5439 5437 5437 5439 5443 5445 5447 5452 5459 5466 5478 5494 5504 5513 5522 5530 5536 5544 5550 5557 5562 5571 5577 5584 5590 5596 5601 5607 5610 5614 5617 5619 5623 5625 5628 5630 5629 5632
5470 5462 5455 5450 5447 5446 5444 5442 5442 5443 5444 5445 5446 5452 5459 5471 5486 5497 5507 5515 5522 5529 5535 5541 5547 5554 5561 5568 5575 5580 5587 5593 5598 5601 5605 5608 5612 5617 5618 5620 5621 5622 5628
5478 5472 5465 5459 5456 5454 5452 5450 5448 5447 5446 5447 5450 5455 5459 5466 5480 5492 5501 5508 5514 5521 5527 5534 5540 5546 5553 5559 5565 5572 5579 5584 5587 5592 5596 5601 5605 5608 5611 5613 5617 5620 5626
5488 5481 5475 5470 5465 5462 5460 5458 5457 5455 5455 5456 5457 5460 5467 5474 5482 5490 5496 5501 5506 5510 5517 5525 5531 5538 5543 5550 5556 5561 5565 5571 5577 5583 5587 5592 5596 5600 5607 5611 5615 5619 5622
5495 5490 5484 5481 5476 5472 5469 5466 5465 5464 5464 5464 5466 5468 5471 5476 5481 5485 5490 5494 5498 5503 5509 5515 5522 5527 5534 5540 5546 5550 5555 5561 5568 5574 5579 5585 5590 5597 5602 5606 5611 5615 5620